Location: Stara Lesna
(49.1528°N, 20.2911°E)
Time: 17:30:36
(UTC+02:00)

Iridium 2 - Pass Details

Date: 21 September 2019
Orbit: 505 x 517 km, 85.5° (Epoch: 16 October)

Event Time Altitude Azimuth Distance (km) Brightness Sun altitude
Rises 05:43:21 0° 356° (N) 2,653 7.4 -7.3°
Reaches altitude 10° 05:45:29 10° 357° (N) 1,759 6.5 -7.0°
Maximum altitude 05:49:20 78° 84° (E) 535 3.9 -6.3°
Drops below altitude 10° 05:53:09 10° 172° (S) 1,739 6.4 -5.7°
Sets 05:55:15 0° 173° (S) 2,619 7.3 -5.4°
